FW4719 Weather Reports


time (UTC)temp
F
wind
direction
speed
knots
gust
knots
rain 1hr
in
rain 24hr
in
rain mn
in
humidity
%
barometer
mb
20260510213107 48 22 0.9 4.3 0.00 0.00 0.00 73 1012.5
20260510211600 48 5 1.7 6.1 0.00 0.00 0.00 73 1012.4
20260510210053 48 13 1.7 7.0 0.00 0.00 0.00 73 1012.4
20260510204557 48 17 1.7 4.3 0.00 0.00 0.00 73 1012.4
20260510203051 49 360 1.7 4.3 0.00 0.00 0.00 72 1012.3
20260510201558 50 27 0.0 3.5 0.00 0.00 0.00 72 1012.4
20260510200053 50 310 0.0 2.6 0.00 0.00 0.00 71 1012.3
20260510194556 51 311 0.9 3.5 0.00 0.00 0.00 71 1012.3
20260510193103 52 340 0.9 2.6 0.00 0.00 0.00 71 1012.2
20260510191556 52 293 0.9 6.1 0.00 0.00 0.00 70 1012.2
20260510190054 53 268 0.9 8.7 0.00 0.00 0.00 69 1012.1
20260510184552 54 350 1.7 7.8 0.00 0.00 0.00 69 1011.9
20260510183053 54 340 0.0 10.4 0.00 0.00 0.00 70 1012.1
20260510181556 53 64 3.5 9.6 0.00 0.00 0.00 70 1011.9
20260510180108 53 17 3.5 12.2 0.00 0.00 0.00 71 1011.9
20260510174559 53 22 3.5 11.3 0.00 0.00 0.00 71 1011.7
20260510173054 53 24 2.6 10.4 0.00 0.00 0.00 72 1011.6
20260510171552 53 56 3.5 13.9 0.00 0.00 0.00 71 1011.6
20260510170054 54 27 4.3 13.0 0.00 0.00 0.00 70 1011.5
20260510164557 55 49 3.5 9.6 0.00 0.00 0.00 69 1011.6
20260510163058 56 39 3.5 12.2 0.00 0.00 0.00 68 1011.6
20260510161554 58 360 3.5 8.7 0.00 0.00 0.00 67 1011.9
20260510160056 59 34 3.5 13.0 0.00 0.00 0.00 65 1012.0
20260510154557 61 25 4.3 12.2 0.00 0.00 0.00 62 1012.2
20260510153055 63 34 3.5 15.6 0.00 0.00 0.00 60 1012.2
20260510151559 64 30 3.5 11.3 0.00 0.00 0.00 59 1012.4
20260510144605 64 17 5.2 10.4 0.00 0.00 0.00 59 1012.7
20260510143100 64 26 2.6 10.4 0.00 0.00 0.00 59 1012.8
20260510141600 65 0 1.7 7.8 0.00 0.00 0.00 59 1012.9
20260510140100 64 0 2.6 10.4 0.00 0.00 0.00 58 1012.9
20260510134607 65 32 3.5 13.0 0.00 0.00 0.00 58 1012.9
20260510133105 65 360 2.6 12.2 0.00 0.00 0.00 58 1013.0
20260510131606 66 22 2.6 9.6 0.00 0.00 0.00 56 1012.9
20260510130110 65 5 2.6 9.6 0.00 0.00 0.00 55 1012.9
20260510124604 65 74 2.6 10.4 0.00 0.00 0.00 57 1013.0
20260510123104 64 37 1.7 8.7 0.00 0.00 0.00 57 1013.1
20260510121559 65 360 1.7 7.8 0.00 0.00 0.00 57 1013.2
20260510114558 64 32 2.6 10.4 0.00 0.00 0.00 58 1013.4
20260510113059 63 0 2.6 10.4 0.00 0.00 0.00 57 1013.5
20260510111551 63 5 3.5 7.8 0.00 0.00 0.00 56 1013.8
20260510110055 62 118 2.6 11.3 0.00 0.00 0.00 59 1013.7
20260510104554 62 0 2.6 11.3 0.00 0.00 0.00 63 1013.7
20260510103054 60 59 1.7 9.6 0.00 0.00 0.00 67 1013.6
20260510101557 58 23 1.7 11.3 0.00 0.00 0.00 68 1013.9
20260510100059 58 46 2.6 12.2 0.00 0.00 0.00 68 1014.0
20260510094553 57 32 2.6 8.7 0.00 0.00 0.00 69 1014.1
20260510093054 56 26 3.5 11.3 0.00 0.00 0.00 70 1014.1
20260510091554 54 23 1.7 8.7 0.00 0.00 0.00 71 1014.0
20260510090052 53 351 2.6 9.6 0.00 0.00 0.00 72 1013.9
20260510084557 53 329 0.0 9.6 0.00 0.00 0.00 73 1014.0
20260510083056 52 346 2.6 11.3 0.00 0.00 0.00 73 1013.9
20260510081554 53 73 0.9 7.8 0.00 0.00 0.00 72 1013.7
20260510080103 53 0 1.7 8.7 0.00 0.00 0.00 72 1013.6
20260510074601 52 0 1.7 13.9 0.00 0.00 0.00 74 1013.5
20260510073116 51 50 2.6 9.6 0.00 0.00 0.00 75 1013.3
20260510071559 50 30 4.3 16.5 0.00 0.00 0.00 77 1013.0
20260510070057 49 35 4.3 14.8 0.00 0.00 0.00 79 1013.0
20260510064631 48 39 4.3 12.2 0.00 0.00 0.00 79 1012.8
20260510063100 47 11 1.7 14.8 0.00 0.00 0.00 79 1012.6
20260510061557 47 34 3.5 10.4 0.00 0.00 0.00 79 1012.7
20260510060057 47 0 3.5 11.3 0.00 0.00 0.00 79 1012.6
20260510054557 47 103 4.3 14.8 0.00 0.00 0.00 78 1012.5
20260510053055 47 37 3.5 12.2 0.00 0.00 0.00 77 1012.7
20260510051558 48 11 3.5 9.6 0.00 0.00 0.00 76 1012.8
20260510050055 48 32 4.3 11.3 0.00 0.00 0.00 75 1012.6
20260510044556 49 39 4.3 13.9 0.00 0.00 0.00 75 1012.7
20260510043054 49 30 3.5 11.3 0.00 0.00 0.00 74 1012.7
20260510041554 50 68 5.2 13.0 0.00 0.00 0.00 74 1012.5
20260510040054 50 360 5.2 14.8 0.00 0.00 0.00 73 1012.7
20260510034616 51 51 5.2 13.9 0.00 0.00 0.00 73 1012.5
20260510033059 51 65 5.2 15.6 0.00 0.00 0.00 74 1012.7
20260510031554 51 40 4.3 13.9 0.00 0.00 0.00 75 1012.7
20260510030110 52 57 4.3 13.0 0.00 0.00 0.00 76 1012.9
20260510024600 52 46 5.2 12.2 0.00 0.00 0.00 76 1012.8
20260510023057 53 61 4.3 14.8 0.00 0.00 0.00 75 1013.0
20260510021608 53 35 5.2 13.9 0.00 0.00 0.00 75 1013.0
20260510020056 53 103 4.3 12.2 0.00 0.00 0.00 75 1013.0
20260510014601 54 105 2.6 13.9 0.00 0.00 0.00 75 1013.2
20260510013110 54 103 3.5 12.2 0.00 0.00 0.00 74 1013.4
20260510011556 54 46 3.5 12.2 0.00 0.00 0.00 74 1013.4
20260510010054 55 36 3.5 17.4 0.00 0.00 0.00 74 1013.5
20260510004551 55 86 2.6 13.0 0.00 0.00 0.00 74 1013.5
20260510003106 55 61 3.5 13.9 0.00 0.00 0.00 74 1013.5
20260510001554 55 81 2.6 13.9 0.00 0.00 0.00 75 1013.5
20260510000116 56 95 4.3 11.3 0.00 0.00 0.00 75 1013.8
20260509234558 56 89 1.7 8.7 0.00 0.00 0.00 75 1013.8
20260509233055 56 31 1.7 10.4 0.00 0.00 0.00 75 1013.8
20260509231608 56 93 2.6 10.4 0.00 0.00 0.00 74 1013.9
20260509230058 56 49 3.5 8.7 0.00 0.00 0.00 74 1013.9
20260509224555 56 40 2.6 8.7 0.00 0.00 0.00 74 1014.0
20260509223105 57 39 1.7 7.0 0.00 0.00 0.00 73 1014.1
20260509221626 57 13 1.7 6.1 0.00 0.00 0.00 73 1014.3
20260509220056 57 349 1.7 4.3 0.00 0.00 0.00 71 1014.4
20260509214603 57 32 1.7 4.3 0.00 0.00 0.00 71 1014.2